Time,TemperatureF,DewpointF,PressureIn,WindDirection,WindDirectionDegrees,WindSpeedMPH,WindSpeedGustMPH,Humidity,HourlyPrecipIn,Conditions,Clouds,dailyrainin,SoftwareType,DateUTC
2013-01-03 00:01:00,37.0,20.1,30.03,SSW,202,2.5,2.9,50,0.00,,CLR,0.00,VWS V14.01,2013-01-03 07:01:00,
2013-01-03 00:03:00,36.9,20.0,30.03,SSW,202,2.7,2.9,50,0.00,,CLR,0.00,VWS V14.01,2013-01-03 07:03:00,
2013-01-03 00:05:00,36.9,20.0,30.03,SSW,202,3.4,3.4,50,0.00,,CLR,0.00,VWS V14.01,2013-01-03 07:05:00,
2013-01-03 00:09:00,36.9,20.0,30.03,SE,135,0.0,2.7,50,0.00,,CLR,0.00,VWS V14.01,2013-01-03 07:09:00,
2013-01-03 00:10:00,36.9,20.0,30.03,North,0,2.5,2.7,50,0.00,,CLR,0.00,VWS V14.01,2013-01-03 07:10:00,
2013-01-03 00:17:00,35.2,18.9,30.03,ENE,68,3.6,3.6,51,0.00,,CLR,0.00,VWS V14.01,2013-01-03 07:17:00,
2013-01-03 00:19:00,35.2,18.9,30.03,South,180,2.2,3.6,51,0.00,,CLR,0.00,VWS V14.01,2013-01-03 07:19:00,
2013-01-03 00:23:00,35.1,18.8,30.03,NW,315,1.3,2.0,51,0.00,,CLR,0.00,VWS V14.01,2013-01-03 07:23:00,
2013-01-03 00:24:00,34.9,18.6,30.03,NNE,22,1.3,1.3,51,0.00,,CLR,0.00,VWS V14.01,2013-01-03 07:24:00,
2013-01-03 00:27:00,34.7,18.4,30.03,NNE,22,0.0,1.6,51,0.00,,CLR,0.00,VWS V14.01,2013-01-03 07:27:00,
2013-01-03 00:31:00,34.5,18.7,30.03,ENE,68,0.0,2.7,52,0.00,,CLR,0.00,VWS V14.01,2013-01-03 07:31:00,
2013-01-03 00:33:00,34.5,18.3,30.03,NE,45,1.1,1.1,51,0.00,,CLR,0.00,VWS V14.01,2013-01-03 07:33:00,
2013-01-03 00:34:00,34.0,17.8,30.03,NE,45,2.0,2.5,51,0.00,,CLR,0.00,VWS V14.01,2013-01-03 07:34:00,
2013-01-03 00:41:00,33.8,18.0,30.03,WNW,292,2.9,3.8,52,0.00,,CLR,0.00,VWS V14.01,2013-01-03 07:41:00,
2013-01-03 00:45:00,33.6,19.2,30.03,NW,315,3.6,4.7,55,0.00,,CLR,0.00,VWS V14.01,2013-01-03 07:45:00,
2013-01-03 00:46:00,33.6,19.6,30.03,NNW,338,4.5,5.6,56,0.00,,CLR,0.00,VWS V14.01,2013-01-03 07:46:00,
2013-01-03 00:48:00,33.6,19.6,30.03,WNW,292,5.8,5.8,56,0.00,,CLR,0.00,VWS V14.01,2013-01-03 07:48:00,
2013-01-03 00:52:00,33.6,20.0,30.03,WNW,292,3.4,3.4,57,0.00,,CLR,0.00,VWS V14.01,2013-01-03 07:52:00,
2013-01-03 00:59:00,33.3,20.1,30.03,WSW,248,3.8,4.3,58,0.00,,CLR,0.00,VWS V14.01,2013-01-03 07:59:00,
2013-01-03 01:03:00,33.1,20.3,30.03,WNW,292,3.4,4.9,59,0.00,,CLR,0.00,VWS V14.01,2013-01-03 08:03:00,
2013-01-03 01:04:00,33.1,20.3,30.03,WSW,248,3.8,4.3,59,0.00,,CLR,0.00,VWS V14.01,2013-01-03 08:04:00,
2013-01-03 01:07:00,32.9,20.5,30.03,West,270,3.6,4.0,60,0.00,,CLR,0.00,VWS V14.01,2013-01-03 08:07:00,
2013-01-03 01:11:00,33.1,21.1,30.03,West,270,4.9,4.9,61,0.00,,CLR,0.00,VWS V14.01,2013-01-03 08:11:00,
2013-01-03 01:12:00,33.1,21.1,30.03,WSW,248,2.7,4.9,61,0.00,,CLR,0.00,VWS V14.01,2013-01-03 08:12:00,
2013-01-03 01:15:00,33.1,21.1,30.03,WSW,248,4.0,4.0,61,0.00,,CLR,0.00,VWS V14.01,2013-01-03 08:15:00,
2013-01-03 01:23:00,33.3,21.3,30.03,WNW,292,3.4,4.9,61,0.00,,CLR,0.00,VWS V14.01,2013-01-03 08:23:00,
2013-01-03 01:25:00,33.3,21.3,30.03,West,270,4.3,4.3,61,0.00,,CLR,0.00,VWS V14.01,2013-01-03 08:25:00,
2013-01-03 01:29:00,33.8,21.4,30.03,WNW,292,3.8,3.8,60,0.00,,CLR,0.00,VWS V14.01,2013-01-03 08:29:00,
2013-01-03 01:33:00,34.0,21.6,30.03,WNW,292,2.9,4.7,60,0.00,,CLR,0.00,VWS V14.01,2013-01-03 08:33:00,
2013-01-03 01:37:00,34.0,21.6,30.03,WNW,292,4.5,5.8,60,0.00,,CLR,0.00,VWS V14.01,2013-01-03 08:37:00,
2013-01-03 01:39:00,34.2,21.7,30.03,WSW,248,4.3,6.3,60,0.00,,CLR,0.00,VWS V14.01,2013-01-03 08:39:00,
2013-01-03 01:41:00,34.3,21.9,30.00,WNW,292,6.0,6.0,60,0.00,,CLR,0.00,VWS V14.01,2013-01-03 08:41:00,
2013-01-03 01:44:00,34.5,21.7,30.00,WSW,248,5.8,5.8,59,0.00,,CLR,0.00,VWS V14.01,2013-01-03 08:44:00,
2013-01-03 01:47:00,34.5,21.7,30.00,WSW,248,4.0,5.8,59,0.00,,CLR,0.00,VWS V14.01,2013-01-03 08:47:00,
2013-01-03 01:50:00,34.7,21.9,30.00,West,270,5.6,5.6,59,0.00,,CLR,0.00,VWS V14.01,2013-01-03 08:50:00,
2013-01-03 01:56:00,34.7,21.5,30.03,WSW,248,3.6,4.9,58,0.00,,CLR,0.00,VWS V14.01,2013-01-03 08:56:00,
2013-01-03 02:00:00,34.7,21.0,30.03,WSW,248,3.6,4.9,57,0.00,,CLR,0.00,VWS V14.01,2013-01-03 09:00:00,
2013-01-03 02:02:00,34.7,21.0,30.03,WSW,248,2.9,4.3,57,0.00,,CLR,0.00,VWS V14.01,2013-01-03 09:02:00,
2013-01-03 02:08:00,33.8,20.2,30.03,SSW,202,2.7,2.7,57,0.00,,CLR,0.00,VWS V14.01,2013-01-03 09:08:00,
2013-01-03 02:10:00,33.4,20.3,30.03,SW,225,2.5,2.9,58,0.00,,CLR,0.00,VWS V14.01,2013-01-03 09:10:00,
2013-01-03 02:16:00,32.9,20.2,30.03,SSW,202,2.5,4.0,59,0.00,,CLR,0.00,VWS V14.01,2013-01-03 09:16:00,
2013-01-03 02:19:00,32.7,20.4,30.03,WSW,248,2.7,3.4,60,0.00,,CLR,0.00,VWS V14.01,2013-01-03 09:19:00,
2013-01-03 02:21:00,32.7,20.4,30.03,WSW,248,2.9,2.9,60,0.00,,CLR,0.00,VWS V14.01,2013-01-03 09:21:00,
2013-01-03 02:22:00,32.7,20.4,30.03,SW,225,2.0,2.9,60,0.00,,CLR,0.00,VWS V14.01,2013-01-03 09:22:00,
2013-01-03 02:26:00,32.7,20.4,30.03,SSW,202,1.6,2.0,60,0.00,,CLR,0.00,VWS V14.01,2013-01-03 09:26:00,
2013-01-03 02:28:00,32.4,20.4,30.00,SSW,202,1.3,1.6,61,0.00,,CLR,0.00,VWS V14.01,2013-01-03 09:28:00,
2013-01-03 02:32:00,31.8,19.9,30.00,SW,225,2.7,2.7,61,0.00,,CLR,0.00,VWS V14.01,2013-01-03 09:32:00,
2013-01-03 02:36:00,31.3,19.0,30.00,SW,225,1.1,2.2,60,0.00,,CLR,0.00,VWS V14.01,2013-01-03 09:36:00,
2013-01-03 02:42:00,30.7,18.9,30.03,WSW,248,1.3,2.2,61,0.00,,CLR,0.00,VWS V14.01,2013-01-03 09:42:00,
2013-01-03 02:44:00,31.1,19.2,30.03,WSW,248,1.1,1.6,61,0.00,,CLR,0.00,VWS V14.01,2013-01-03 09:44:00,
2013-01-03 02:50:00,30.4,18.9,30.03,WSW,248,2.7,2.7,62,0.00,,CLR,0.00,VWS V14.01,2013-01-03 09:50:00,
2013-01-03 02:56:00,30.0,19.3,30.03,WSW,248,2.5,2.9,64,0.00,,CLR,0.00,VWS V14.01,2013-01-03 09:56:00,
2013-01-03 03:02:00,29.5,18.8,30.03,WSW,248,2.5,2.9,64,0.00,,CLR,0.00,VWS V14.01,2013-01-03 10:02:00,
2013-01-03 03:05:00,29.5,19.2,30.03,SW,225,2.7,2.9,65,0.00,,CLR,0.00,VWS V14.01,2013-01-03 10:05:00,
2013-01-03 03:07:00,29.5,19.2,30.03,SSW,202,2.0,2.7,65,0.00,,CLR,0.00,VWS V14.01,2013-01-03 10:07:00,
2013-01-03 03:08:00,28.9,19.0,30.03,SSW,202,2.5,2.7,66,0.00,,CLR,0.00,VWS V14.01,2013-01-03 10:08:00,
2013-01-03 03:14:00,28.2,20.0,30.03,SSW,202,1.6,2.5,71,0.00,,CLR,0.00,VWS V14.01,2013-01-03 10:14:00,
2013-01-03 03:17:00,28.2,19.7,30.03,SSW,202,1.6,2.5,70,0.00,,CLR,0.00,VWS V14.01,2013-01-03 10:17:00,
2013-01-03 03:20:00,28.4,20.5,30.03,SSW,202,2.7,3.4,72,0.00,,CLR,0.00,VWS V14.01,2013-01-03 10:20:00,
2013-01-03 03:23:00,28.9,21.4,30.03,SSW,202,2.5,3.6,73,0.00,,CLR,0.00,VWS V14.01,2013-01-03 10:23:00,
2013-01-03 03:28:00,28.9,21.4,30.03,SSW,202,1.6,1.6,73,0.00,,CLR,0.00,VWS V14.01,2013-01-03 10:28:00,
2013-01-03 03:30:00,28.9,21.1,30.03,WSW,248,2.0,2.0,72,0.00,,CLR,0.00,VWS V14.01,2013-01-03 10:30:00,
2013-01-03 03:36:00,28.8,20.6,30.03,West,270,2.2,3.4,71,0.00,,CLR,0.00,VWS V14.01,2013-01-03 10:36:00,
2013-01-03 03:38:00,28.6,20.4,30.03,WNW,292,2.5,2.5,71,0.00,,CLR,0.00,VWS V14.01,2013-01-03 10:38:00,
2013-01-03 03:43:00,28.8,20.9,30.03,WSW,248,2.2,2.5,72,0.00,,CLR,0.00,VWS V14.01,2013-01-03 10:43:00,
2013-01-03 03:44:00,29.1,21.6,30.03,WNW,292,3.4,3.4,73,0.00,,CLR,0.00,VWS V14.01,2013-01-03 10:44:00,
2013-01-03 03:46:00,29.5,22.5,30.03,WNW,292,4.0,4.3,75,0.00,,CLR,0.00,VWS V14.01,2013-01-03 10:46:00,
2013-01-03 03:50:00,30.6,23.6,30.03,WNW,292,3.6,6.5,75,0.00,,CLR,0.00,VWS V14.01,2013-01-03 10:50:00,
2013-01-03 03:52:00,31.1,23.8,30.03,West,270,8.1,9.6,74,0.00,,CLR,0.00,VWS V14.01,2013-01-03 10:52:00,
2013-01-03 03:56:00,32.0,23.7,30.03,WNW,292,8.5,9.8,71,0.00,,CLR,0.00,VWS V14.01,2013-01-03 10:56:00,
2013-01-03 03:59:00,32.2,23.2,30.03,WNW,292,8.5,8.5,69,0.00,,CLR,0.00,VWS V14.01,2013-01-03 10:59:00,
2013-01-03 04:01:00,32.2,22.5,30.03,WNW,292,8.5,8.5,67,0.00,,BKN049,0.00,VWS V14.01,2013-01-03 11:01:00,
2013-01-03 04:02:00,32.2,22.5,30.03,WNW,292,4.7,8.5,67,0.00,,BKN049,0.00,VWS V14.01,2013-01-03 11:02:00,
2013-01-03 04:06:00,32.2,21.0,30.03,West,270,4.3,7.4,63,0.00,,BKN049,0.00,VWS V14.01,2013-01-03 11:06:00,
2013-01-03 04:09:00,32.2,21.0,30.03,WNW,292,3.8,5.6,63,0.00,,BKN049,0.00,VWS V14.01,2013-01-03 11:09:00,
2013-01-03 04:10:00,32.2,21.0,30.00,West,270,4.9,5.4,63,0.00,,BKN049,0.00,VWS V14.01,2013-01-03 11:10:00,
2013-01-03 04:12:00,32.2,21.0,30.00,WSW,248,4.7,8.5,63,0.00,,BKN049,0.00,VWS V14.01,2013-01-03 11:12:00,
2013-01-03 04:17:00,32.2,21.0,30.00,WSW,248,4.0,6.3,63,0.00,,BKN049,0.00,VWS V14.01,2013-01-03 11:17:00,
2013-01-03 04:22:00,32.5,21.0,30.00,WNW,292,4.9,6.5,62,0.00,,BKN049,0.00,VWS V14.01,2013-01-03 11:22:00,
2013-01-03 04:26:00,32.7,20.8,30.03,WNW,292,5.6,8.1,61,0.00,,BKN049,0.00,VWS V14.01,2013-01-03 11:26:00,
2013-01-03 04:34:00,33.1,20.7,30.03,West,270,4.7,7.6,60,0.00,,BKN049,0.00,VWS V14.01,2013-01-03 11:34:00,
2013-01-03 04:40:00,32.9,20.2,30.00,WNW,292,5.8,5.8,59,0.00,,BKN049,0.00,VWS V14.01,2013-01-03 11:40:00,
2013-01-03 04:44:00,32.7,20.0,30.00,WSW,248,4.3,5.6,59,0.00,,BKN049,0.00,VWS V14.01,2013-01-03 11:44:00,
2013-01-03 04:47:00,32.7,20.0,30.00,West,270,4.3,4.3,59,0.00,,BKN049,0.00,VWS V14.01,2013-01-03 11:47:00,
2013-01-03 04:52:00,32.4,19.6,30.00,West,270,2.9,3.8,59,0.00,,BKN049,0.00,VWS V14.01,2013-01-03 11:52:00,
2013-01-03 04:54:00,32.4,19.6,30.00,WNW,292,3.8,5.4,59,0.00,,BKN049,0.00,VWS V14.01,2013-01-03 11:54:00,
2013-01-03 04:56:00,32.5,20.2,30.00,WNW,292,3.6,4.7,60,0.00,,BKN049,0.00,VWS V14.01,2013-01-03 11:56:00,
2013-01-03 05:02:00,32.5,20.2,30.00,WSW,248,4.9,5.8,60,0.00,,BKN055,0.00,VWS V14.01,2013-01-03 12:02:00,
2013-01-03 05:04:00,32.5,20.2,30.00,West,270,2.7,4.9,60,0.00,,BKN055,0.00,VWS V14.01,2013-01-03 12:04:00,
2013-01-03 05:08:00,32.9,20.9,30.00,WSW,248,4.9,5.6,61,0.00,,BKN055,0.00,VWS V14.01,2013-01-03 12:08:00,
2013-01-03 05:11:00,33.1,21.1,30.00,WNW,292,3.8,7.4,61,0.00,,BKN055,0.00,VWS V14.01,2013-01-03 12:11:00,
2013-01-03 05:15:00,33.1,20.7,30.00,SW,225,5.4,5.4,60,0.00,,BKN055,0.00,VWS V14.01,2013-01-03 12:15:00,
2013-01-03 05:16:00,33.4,21.1,30.00,WSW,248,4.0,5.4,60,0.00,,BKN055,0.00,VWS V14.01,2013-01-03 12:16:00,
2013-01-03 05:20:00,33.6,20.8,30.00,WSW,248,3.8,4.0,59,0.00,,BKN055,0.00,VWS V14.01,2013-01-03 12:20:00,
2013-01-03 05:22:00,33.6,20.8,30.00,WSW,248,2.9,3.8,59,0.00,,BKN055,0.00,VWS V14.01,2013-01-03 12:22:00,
2013-01-03 05:26:00,33.8,20.6,30.00,WNW,292,4.0,4.3,58,0.00,,BKN055,0.00,VWS V14.01,2013-01-03 12:26:00,
2013-01-03 05:29:00,33.8,20.6,30.00,WSW,248,2.9,4.3,58,0.00,,BKN055,0.00,VWS V14.01,2013-01-03 12:29:00,
2013-01-03 05:34:00,34.2,20.9,30.00,South,180,2.0,2.9,58,0.00,,BKN055,0.00,VWS V14.01,2013-01-03 12:34:00,
2013-01-03 05:37:00,34.2,20.9,30.00,SSE,158,1.1,2.0,58,0.00,,BKN055,0.00,VWS V14.01,2013-01-03 12:37:00,
2013-01-03 05:42:00,34.0,20.8,30.00,SW,225,0.0,2.2,58,0.00,,BKN055,0.00,VWS V14.01,2013-01-03 12:42:00,
2013-01-03 05:44:00,33.8,20.6,30.00,SW,225,0.0,0.0,58,0.00,,BKN055,0.00,VWS V14.01,2013-01-03 12:44:00,
2013-01-03 05:46:00,33.6,20.4,30.00,South,180,2.5,2.5,58,0.00,,BKN055,0.00,VWS V14.01,2013-01-03 12:46:00,
2013-01-03 05:51:00,33.4,20.7,30.00,SW,225,2.2,2.2,59,0.00,,BKN055,0.00,VWS V14.01,2013-01-03 12:51:00,
2013-01-03 05:54:00,33.3,20.9,30.00,SSW,202,2.0,2.5,60,0.00,,BKN055,0.00,VWS V14.01,2013-01-03 12:54:00,
2013-01-03 05:58:00,33.1,20.7,30.03,SSW,202,2.5,2.7,60,0.00,,BKN055,0.00,VWS V14.01,2013-01-03 12:58:00,
2013-01-03 06:00:00,32.9,20.9,30.03,SW,225,2.2,2.7,61,0.00,,BKN055,0.00,VWS V14.01,2013-01-03 13:00:00,
2013-01-03 06:04:00,32.9,20.9,30.03,WSW,248,2.0,2.2,61,0.00,,BKN055,0.00,VWS V14.01,2013-01-03 13:04:00,
2013-01-03 06:07:00,32.9,20.9,30.03,SW,225,2.7,2.7,61,0.00,,BKN055,0.00,VWS V14.01,2013-01-03 13:07:00,
2013-01-03 06:10:00,32.7,21.1,30.03,South,180,2.9,2.9,62,0.00,,BKN055,0.00,VWS V14.01,2013-01-03 13:10:00,
2013-01-03 06:16:00,32.0,20.5,30.03,South,180,3.8,4.3,62,0.00,,BKN055,0.00,VWS V14.01,2013-01-03 13:16:00,
2013-01-03 06:18:00,32.2,20.6,30.03,SSW,202,1.1,3.8,62,0.00,,BKN055,0.00,VWS V14.01,2013-01-03 13:18:00,
2013-01-03 06:22:00,32.0,20.5,30.03,WSW,248,2.7,2.7,62,0.00,,BKN055,0.00,VWS V14.01,2013-01-03 13:22:00,
2013-01-03 06:24:00,31.6,20.5,30.03,WSW,248,2.7,2.7,63,0.00,,BKN055,0.00,VWS V14.01,2013-01-03 13:24:00,
2013-01-03 06:30:00,31.1,20.0,30.03,WNW,292,0.0,2.7,63,0.00,,BKN055,0.00,VWS V14.01,2013-01-03 13:30:00,
2013-01-03 06:32:00,30.7,19.6,30.03,WNW,292,0.0,0.0,63,0.00,,BKN055,0.00,VWS V14.01,2013-01-03 13:32:00,
2013-01-03 06:34:00,30.6,19.5,30.03,WNW,292,0.0,0.0,63,0.00,,BKN055,0.00,VWS V14.01,2013-01-03 13:34:00,
2013-01-03 06:40:00,29.8,19.5,30.03,WNW,292,1.3,2.9,65,0.00,,BKN055,0.00,VWS V14.01,2013-01-03 13:40:00,
2013-01-03 06:42:00,29.7,19.0,30.03,WNW,292,1.3,1.3,64,0.00,,BKN055,0.00,VWS V14.01,2013-01-03 13:42:00,
2013-01-03 06:46:00,29.5,18.8,30.03,WSW,248,1.3,1.6,64,0.00,,BKN055,0.00,VWS V14.01,2013-01-03 13:46:00,
2013-01-03 06:52:00,28.8,18.9,30.03,SSW,202,1.6,3.6,66,0.00,,BKN055,0.00,VWS V14.01,2013-01-03 13:52:00,
2013-01-03 06:54:00,28.4,19.2,30.03,SSW,202,2.7,3.1,68,0.00,,BKN055,0.00,VWS V14.01,2013-01-03 13:54:00,
2013-01-03 06:56:00,28.4,19.5,30.03,SSW,202,2.0,2.7,69,0.00,,BKN055,0.00,VWS V14.01,2013-01-03 13:56:00,
2013-01-03 06:58:00,28.4,19.5,30.03,SSW,202,2.2,2.2,69,0.00,,BKN055,0.00,VWS V14.01,2013-01-03 13:58:00,
2013-01-03 07:03:00,28.4,20.2,30.03,SSW,202,0.0,1.1,71,0.00,,BKN055,0.00,VWS V14.01,2013-01-03 14:03:00,
2013-01-03 07:06:00,28.4,20.5,30.03,SSW,202,0.9,1.6,72,0.00,,BKN055,0.00,VWS V14.01,2013-01-03 14:06:00,
2013-01-03 07:10:00,28.4,20.9,30.00,SSW,202,3.4,3.6,73,0.00,,BKN055,0.00,VWS V14.01,2013-01-03 14:10:00,
2013-01-03 07:12:00,28.8,21.2,30.00,SSW,202,3.8,3.8,73,0.00,,BKN055,0.00,VWS V14.01,2013-01-03 14:12:00,
2013-01-03 07:15:00,29.1,21.6,30.00,SW,225,2.9,3.8,73,0.00,,BKN055,0.00,VWS V14.01,2013-01-03 14:15:00,
2013-01-03 07:17:00,29.1,21.6,30.00,SW,225,2.9,2.9,73,0.00,,BKN055,0.00,VWS V14.01,2013-01-03 14:17:00,
2013-01-03 07:24:00,32.7,23.0,30.00,SSE,158,6.0,6.0,67,0.00,,BKN055,0.00,VWS V14.01,2013-01-03 14:24:00,
2013-01-03 07:26:00,33.4,23.3,30.03,SSE,158,6.5,8.7,66,0.00,,BKN055,0.00,VWS V14.01,2013-01-03 14:26:00,
2013-01-03 07:28:00,34.2,22.9,30.03,SSE,158,10.1,10.3,63,0.00,,BKN055,0.00,VWS V14.01,2013-01-03 14:28:00,
2013-01-03 07:31:00,35.1,22.2,30.03,SSE,158,8.5,12.5,59,0.00,,BKN055,0.00,VWS V14.01,2013-01-03 14:31:00,
2013-01-03 07:34:00,36.0,21.8,30.03,SSE,158,11.0,11.0,56,0.00,,BKN055,0.00,VWS V14.01,2013-01-03 14:34:00,
2013-01-03 07:38:00,36.5,21.5,30.03,SSE,158,13.2,14.8,54,0.00,,BKN055,0.00,VWS V14.01,2013-01-03 14:38:00,
2013-01-03 07:45:00,36.9,20.9,30.03,SSE,158,7.8,13.2,52,0.00,,BKN055,0.00,VWS V14.01,2013-01-03 14:45:00,
2013-01-03 07:46:00,37.0,21.1,30.03,South,180,5.4,12.8,52,0.00,,BKN055,0.00,VWS V14.01,2013-01-03 14:46:00,
2013-01-03 07:53:00,37.6,20.6,30.03,SSE,158,10.5,13.0,50,0.00,,BKN055,0.00,VWS V14.01,2013-01-03 14:53:00,
2013-01-03 07:54:00,37.8,20.8,30.03,SSE,158,10.1,10.5,50,0.00,,BKN055,0.00,VWS V14.01,2013-01-03 14:54:00,
2013-01-03 07:59:00,37.9,20.5,30.03,South,180,10.7,10.7,49,0.00,,BKN055,0.00,VWS V14.01,2013-01-03 14:59:00,
2013-01-03 08:00:00,38.3,20.8,30.03,SSE,158,13.2,13.2,49,0.00,,BKN055,0.00,VWS V14.01,2013-01-03 15:00:00,
2013-01-03 08:07:00,38.5,20.5,30.03,SSE,158,13.2,13.2,48,0.00,,FEW050,0.00,VWS V14.01,2013-01-03 15:07:00,
2013-01-03 08:09:00,38.8,20.8,30.03,SSE,158,10.1,13.2,48,0.00,,FEW050,0.00,VWS V14.01,2013-01-03 15:09:00,
2013-01-03 08:13:00,39.0,20.5,30.06,SSE,158,10.3,10.3,47,0.00,,FEW050,0.00,VWS V14.01,2013-01-03 15:13:00,
2013-01-03 08:16:00,38.8,19.8,30.06,SSE,158,10.5,10.5,46,0.00,,FEW050,0.00,VWS V14.01,2013-01-03 15:16:00,
2013-01-03 08:23:00,38.5,19.5,30.06,SSE,158,10.5,10.5,46,0.00,,FEW050,0.00,VWS V14.01,2013-01-03 15:23:00,
2013-01-03 08:29:00,38.1,19.2,30.06,SSE,158,7.6,10.7,46,0.00,,FEW050,0.00,VWS V14.01,2013-01-03 15:29:00,
2013-01-03 08:33:00,38.1,19.2,30.06,SSE,158,13.2,13.2,46,0.00,,FEW050,0.00,VWS V14.01,2013-01-03 15:33:00,
2013-01-03 08:34:00,37.9,18.5,30.06,SSE,158,9.8,13.2,45,0.00,,FEW050,0.00,VWS V14.01,2013-01-03 15:34:00,
2013-01-03 08:41:00,37.9,18.5,30.09,SSE,158,14.1,14.1,45,0.00,,FEW050,0.00,VWS V14.01,2013-01-03 15:41:00,
2013-01-03 08:45:00,37.8,18.3,30.09,SSE,158,6.7,6.7,45,0.00,,FEW050,0.00,VWS V14.01,2013-01-03 15:45:00,
2013-01-03 08:47:00,37.8,18.3,30.09,SSE,158,7.8,10.1,45,0.00,,FEW050,0.00,VWS V14.01,2013-01-03 15:47:00,
2013-01-03 08:49:00,37.6,18.2,30.09,SSW,202,14.5,14.5,45,0.00,,FEW050,0.00,VWS V14.01,2013-01-03 15:49:00,
2013-01-03 08:51:00,37.6,18.2,30.09,South,180,12.3,14.5,45,0.00,,FEW050,0.00,VWS V14.01,2013-01-03 15:51:00,
2013-01-03 08:53:00,37.6,18.2,30.09,SSE,158,10.3,14.3,45,0.00,,FEW050,0.00,VWS V14.01,2013-01-03 15:53:00,
2013-01-03 08:57:00,37.6,18.2,30.09,SSE,158,9.4,16.8,45,0.00,,FEW050,0.00,VWS V14.01,2013-01-03 15:57:00,
2013-01-03 08:58:00,37.8,18.3,30.09,SSE,158,13.2,16.8,45,0.00,,FEW050,0.00,VWS V14.01,2013-01-03 15:58:00,
2013-01-03 09:00:00,37.8,18.3,30.09,SSE,158,11.0,15.2,45,0.00,,SCT050,0.00,VWS V14.01,2013-01-03 16:00:00,
2013-01-03 09:02:00,37.8,18.3,30.09,SSE,158,16.3,16.3,45,0.00,,SCT050,0.00,VWS V14.01,2013-01-03 16:02:00,
2013-01-03 09:07:00,37.9,18.5,30.09,SSE,158,15.9,15.9,45,0.00,,SCT050,0.00,VWS V14.01,2013-01-03 16:07:00,
2013-01-03 09:09:00,37.9,18.5,30.09,SSE,158,9.4,15.9,45,0.00,,SCT050,0.00,VWS V14.01,2013-01-03 16:09:00,
2013-01-03 09:12:00,37.9,18.5,30.12,SE,135,4.0,8.7,45,0.00,,SCT050,0.00,VWS V14.01,2013-01-03 16:12:00,
2013-01-03 09:17:00,37.8,18.3,30.12,SSE,158,9.8,13.4,45,0.00,,SCT050,0.00,VWS V14.01,2013-01-03 16:17:00,
2013-01-03 09:19:00,37.6,18.2,30.12,SSE,158,9.8,9.8,45,0.00,,SCT050,0.00,VWS V14.01,2013-01-03 16:19:00,
2013-01-03 09:23:00,37.8,18.3,30.12,SSE,158,9.8,9.8,45,0.00,,SCT050,0.00,VWS V14.01,2013-01-03 16:23:00,
2013-01-03 09:25:00,37.8,18.3,30.12,SSE,158,9.8,9.8,45,0.00,,SCT050,0.00,VWS V14.01,2013-01-03 16:25:00,
2013-01-03 09:29:00,37.9,19.0,30.09,SSE,158,8.7,13.4,46,0.00,,SCT050,0.00,VWS V14.01,2013-01-03 16:29:00,
2013-01-03 09:35:00,38.5,19.5,30.09,SSE,158,8.1,13.4,46,0.00,,SCT050,0.00,VWS V14.01,2013-01-03 16:35:00,
2013-01-03 09:37:00,38.7,19.7,30.09,SSE,158,10.1,10.1,46,0.00,,SCT050,0.00,VWS V14.01,2013-01-03 16:37:00,
2013-01-03 09:38:00,39.2,20.2,30.09,SSE,158,5.8,10.3,46,0.00,,SCT050,0.00,VWS V14.01,2013-01-03 16:38:00,
2013-01-03 09:43:00,39.7,20.7,30.09,SSE,158,15.4,16.6,46,0.00,,SCT050,0.00,VWS V14.01,2013-01-03 16:43:00,
2013-01-03 09:48:00,41.0,21.3,30.09,South,180,8.1,13.2,45,0.00,,SCT050,0.00,VWS V14.01,2013-01-03 16:48:00,
2013-01-03 09:52:00,40.6,21.0,30.09,SSE,158,6.5,10.7,45,0.00,,SCT050,0.00,VWS V14.01,2013-01-03 16:52:00,
2013-01-03 09:57:00,41.4,21.6,30.06,SSE,158,10.5,10.5,45,0.00,,SCT050,0.00,VWS V14.01,2013-01-03 16:57:00,
2013-01-03 10:02:00,40.5,20.8,30.06,SSE,158,5.8,9.8,45,0.00,,BKN050,0.00,VWS V14.01,2013-01-03 17:02:00,
2013-01-03 10:06:00,40.5,20.8,30.06,SSE,158,10.5,10.5,45,0.00,,BKN050,0.00,VWS V14.01,2013-01-03 17:06:00,
2013-01-03 10:10:00,40.6,21.5,30.06,SSE,158,3.4,8.7,46,0.00,,BKN050,0.00,VWS V14.01,2013-01-03 17:10:00,
2013-01-03 10:16:00,42.6,23.3,30.06,SSE,158,3.1,10.5,46,0.00,,BKN050,0.00,VWS V14.01,2013-01-03 17:16:00,
2013-01-03 10:19:00,42.1,22.3,30.06,SSE,158,3.1,3.1,45,0.00,,BKN050,0.00,VWS V14.01,2013-01-03 17:19:00,
2013-01-03 10:22:00,42.1,22.3,30.06,SSE,158,2.7,8.5,45,0.00,,BKN050,0.00,VWS V14.01,2013-01-03 17:22:00,
2013-01-03 10:24:00,41.7,22.0,30.06,SSE,158,2.7,2.7,45,0.00,,BKN050,0.00,VWS V14.01,2013-01-03 17:24:00,
2013-01-03 10:30:00,42.8,23.0,30.09,South,180,5.4,7.6,45,0.00,,BKN050,0.00,VWS V14.01,2013-01-03 17:30:00,
2013-01-03 10:34:00,44.1,24.1,30.09,ENE,68,2.7,2.9,45,0.00,,BKN050,0.00,VWS V14.01,2013-01-03 17:34:00,
2013-01-03 10:36:00,44.8,24.2,30.09,SSE,158,2.7,4.9,44,0.00,,BKN050,0.00,VWS V14.01,2013-01-03 17:36:00,
2013-01-03 10:39:00,45.0,24.4,30.09,SE,135,1.3,6.0,44,0.00,,BKN050,0.00,VWS V14.01,2013-01-03 17:39:00,
2013-01-03 10:40:00,45.9,24.6,30.09,East,90,5.4,6.0,43,0.00,,BKN050,0.00,VWS V14.01,2013-01-03 17:40:00,
2013-01-03 10:42:00,46.2,25.0,30.09,ENE,68,3.6,5.6,43,0.00,,BKN050,0.00,VWS V14.01,2013-01-03 17:42:00,
2013-01-03 10:45:00,46.6,24.7,30.09,ESE,112,3.8,4.7,42,0.00,,BKN050,0.00,VWS V14.01,2013-01-03 17:45:00,
2013-01-03 10:48:00,47.5,25.5,30.09,NE,45,4.7,5.6,42,0.00,,BKN050,0.00,VWS V14.01,2013-01-03 17:48:00,
2013-01-03 10:53:00,48.0,26.0,30.09,ENE,68,3.6,3.6,42,0.00,,BKN050,0.00,VWS V14.01,2013-01-03 17:53:00,
2013-01-03 10:54:00,48.0,26.0,30.09,East,90,4.0,4.0,42,0.00,,BKN050,0.00,VWS V14.01,2013-01-03 17:54:00,
2013-01-03 10:58:00,47.8,25.3,30.09,ENE,68,5.8,5.8,41,0.00,,BKN050,0.00,VWS V14.01,2013-01-03 17:58:00,
2013-01-03 11:03:00,48.2,25.6,30.09,ENE,68,3.1,3.1,41,0.00,,BKN050,0.00,VWS V14.01,2013-01-03 18:03:00,
2013-01-03 11:04:00,48.2,25.0,30.09,SSE,158,8.1,8.5,40,0.00,,BKN050,0.00,VWS V14.01,2013-01-03 18:04:00,
2013-01-03 11:07:00,48.2,25.0,30.09,SE,135,1.6,8.1,40,0.00,,BKN050,0.00,VWS V14.01,2013-01-03 18:07:00,
2013-01-03 11:10:00,47.7,24.5,30.06,ENE,68,6.3,6.5,40,0.00,,BKN050,0.00,VWS V14.01,2013-01-03 18:10:00,
2013-01-03 11:16:00,48.2,25.0,30.06,South,180,5.6,7.8,40,0.00,,BKN050,0.00,VWS V14.01,2013-01-03 18:16:00,
2013-01-03 11:18:00,48.2,25.0,30.06,ENE,68,4.7,8.5,40,0.00,,BKN050,0.00,VWS V14.01,2013-01-03 18:18:00,
2013-01-03 11:24:00,48.4,25.2,30.06,SE,135,6.5,6.5,40,0.00,,BKN050,0.00,VWS V14.01,2013-01-03 18:24:00,
2013-01-03 11:28:00,48.7,25.5,30.12,ENE,68,8.1,8.1,40,0.00,,BKN050,0.00,VWS V14.01,2013-01-03 18:28:00,
2013-01-03 11:34:00,46.8,23.7,30.12,ESE,112,2.7,8.5,40,0.00,,BKN050,0.00,VWS V14.01,2013-01-03 18:34:00,
2013-01-03 11:42:00,47.1,24.1,30.12,ESE,112,6.3,7.6,40,0.00,,BKN050,0.00,VWS V14.01,2013-01-03 18:42:00,
2013-01-03 11:44:00,47.3,24.2,30.12,SE,135,5.6,6.9,40,0.00,,BKN050,0.00,VWS V14.01,2013-01-03 18:44:00,
2013-01-03 11:48:00,47.1,24.1,30.12,SE,135,16.8,16.8,40,0.00,,BKN050,0.00,VWS V14.01,2013-01-03 18:48:00,
2013-01-03 11:55:00,46.4,24.0,30.12,East,90,7.4,13.2,41,0.00,,BKN050,0.00,VWS V14.01,2013-01-03 18:55:00,
2013-01-03 11:57:00,46.6,24.2,30.09,South,180,5.4,10.3,41,0.00,,BKN050,0.00,VWS V14.01,2013-01-03 18:57:00,
2013-01-03 12:00:00,47.3,24.8,30.09,SSW,202,3.6,11.0,41,0.00,,SCT060,0.00,VWS V14.01,2013-01-03 19:00:00,
2013-01-03 12:02:00,47.5,25.0,30.09,SSW,202,4.0,8.5,41,0.00,,SCT060,0.00,VWS V14.01,2013-01-03 19:02:00,
2013-01-03 12:06:00,46.2,24.4,30.09,SSW,202,6.9,6.9,42,0.00,,SCT060,0.00,VWS V14.01,2013-01-03 19:06:00,
2013-01-03 12:08:00,46.0,24.2,30.09,SE,135,7.6,8.5,42,0.00,,SCT060,0.00,VWS V14.01,2013-01-03 19:08:00,
2013-01-03 12:12:00,46.2,25.0,30.09,ESE,112,5.4,13.2,43,0.00,,SCT060,0.00,VWS V14.01,2013-01-03 19:12:00,
2013-01-03 12:18:00,46.9,25.6,30.09,SSE,158,14.3,14.3,43,0.00,,SCT060,0.00,VWS V14.01,2013-01-03 19:18:00,
2013-01-03 12:53:00,45.0,27.0,30.09,ENE,68,10.5,10.5,49,0.00,,SCT060,0.00,VWS V14.01,2013-01-03 19:53:00,
2013-01-03 12:57:00,46.2,28.1,30.09,ESE,112,7.8,12.5,49,0.00,,SCT060,0.00,VWS V14.01,2013-01-03 19:57:00,
2013-01-03 13:02:00,46.2,28.1,30.09,SE,135,8.5,13.0,49,0.00,,SCT080,0.00,VWS V14.01,2013-01-03 20:02:00,
2013-01-03 13:08:00,46.6,28.0,30.09,SSE,158,15.2,15.2,48,0.00,,SCT080,0.00,VWS V14.01,2013-01-03 20:08:00,
2013-01-03 13:10:00,46.6,28.0,30.09,South,180,13.9,15.2,48,0.00,,SCT080,0.00,VWS V14.01,2013-01-03 20:10:00,
2013-01-03 13:14:00,46.2,27.6,30.09,SE,135,12.8,12.8,48,0.00,,SCT080,0.00,VWS V14.01,2013-01-03 20:14:00,
2013-01-03 13:16:00,46.2,27.6,30.09,SSE,158,13.6,13.6,48,0.00,,SCT080,0.00,VWS V14.01,2013-01-03 20:16:00,
2013-01-03 13:19:00,45.3,26.8,30.09,SE,135,9.4,14.3,48,0.00,,SCT080,0.00,VWS V14.01,2013-01-03 20:19:00,
2013-01-03 13:20:00,45.3,27.3,30.09,SE,135,8.5,9.4,49,0.00,,SCT080,0.00,VWS V14.01,2013-01-03 20:20:00,
2013-01-03 13:22:00,45.1,27.1,30.09,SE,135,8.7,13.2,49,0.00,,SCT080,0.00,VWS V14.01,2013-01-03 20:22:00,
2013-01-03 13:28:00,46.4,27.8,30.06,SE,135,6.3,10.3,48,0.00,,SCT080,0.00,VWS V14.01,2013-01-03 20:28:00,
2013-01-03 13:32:00,45.9,27.8,30.06,South,180,8.5,8.5,49,0.00,,SCT080,0.00,VWS V14.01,2013-01-03 20:32:00,
2013-01-03 13:35:00,45.7,27.6,30.06,ENE,68,12.3,12.3,49,0.00,,SCT080,0.00,VWS V14.01,2013-01-03 20:35:00,
2013-01-03 13:38:00,46.0,28.0,30.06,South,180,9.8,10.5,49,0.00,,SCT080,0.00,VWS V14.01,2013-01-03 20:38:00,
2013-01-03 13:42:00,45.7,27.6,30.06,SE,135,8.5,10.5,49,0.00,,SCT080,0.00,VWS V14.01,2013-01-03 20:42:00,
2013-01-03 13:48:00,45.1,27.1,30.06,ESE,112,8.5,13.4,49,0.00,,SCT080,0.00,VWS V14.01,2013-01-03 20:48:00,
2013-01-03 13:52:00,43.9,26.5,30.06,ESE,112,7.8,10.1,50,0.00,,SCT080,0.00,VWS V14.01,2013-01-03 20:52:00,
2013-01-03 13:54:00,43.9,26.9,30.06,SE,135,5.8,7.8,51,0.00,,SCT080,0.00,VWS V14.01,2013-01-03 20:54:00,
2013-01-03 13:56:00,43.7,26.8,30.06,SE,135,5.4,10.7,51,0.00,,SCT080,0.00,VWS V14.01,2013-01-03 20:56:00,
2013-01-03 14:00:00,44.1,27.6,30.06,SE,135,7.4,11.9,52,0.00,,BKN080,0.00,VWS V14.01,2013-01-03 21:00:00,
2013-01-03 14:02:00,43.9,27.4,30.06,South,180,6.3,10.1,52,0.00,,BKN080,0.00,VWS V14.01,2013-01-03 21:02:00,
2013-01-03 14:08:00,43.5,27.5,30.06,SSE,158,5.6,16.8,53,0.00,,BKN080,0.00,VWS V14.01,2013-01-03 21:08:00,
2013-01-03 14:10:00,43.2,27.2,30.06,SE,135,13.2,13.2,53,0.00,,BKN080,0.00,VWS V14.01,2013-01-03 21:10:00,
2013-01-03 14:14:00,42.8,26.9,30.06,SE,135,7.4,12.8,53,0.00,,BKN080,0.00,VWS V14.01,2013-01-03 21:14:00,
2013-01-03 14:16:00,42.6,27.6,30.06,SE,135,6.3,13.0,55,0.00,,BKN080,0.00,VWS V14.01,2013-01-03 21:16:00,
2013-01-03 14:20:00,43.3,28.3,30.06,SSE,158,8.7,10.1,55,0.00,,BKN080,0.00,VWS V14.01,2013-01-03 21:20:00,
2013-01-03 14:22:00,43.5,28.4,30.06,ESE,112,8.5,11.0,55,0.00,,BKN080,0.00,VWS V14.01,2013-01-03 21:22:00,
2013-01-03 14:26:00,43.3,28.3,30.06,South,180,7.2,12.3,55,0.00,,BKN080,0.00,VWS V14.01,2013-01-03 21:26:00,
2013-01-03 14:30:00,43.0,27.9,30.06,SE,135,6.5,10.7,55,0.00,,BKN080,0.00,VWS V14.01,2013-01-03 21:30:00,
2013-01-03 14:38:00,44.2,29.5,30.06,SSE,158,5.6,10.5,56,0.00,,BKN080,0.00,VWS V14.01,2013-01-03 21:38:00,
2013-01-03 14:41:00,44.6,29.5,30.06,East,90,11.9,11.9,55,0.00,,BKN080,0.00,VWS V14.01,2013-01-03 21:41:00,
2013-01-03 14:43:00,44.2,29.1,30.06,SSE,158,8.1,11.9,55,0.00,,BKN080,0.00,VWS V14.01,2013-01-03 21:43:00,
2013-01-03 14:46:00,43.9,29.2,30.06,SE,135,4.9,14.8,56,0.00,,BKN080,0.00,VWS V14.01,2013-01-03 21:46:00,
2013-01-03 14:50:00,45.5,31.2,30.06,SSE,158,6.5,7.6,57,0.00,,BKN080,0.00,VWS V14.01,2013-01-03 21:50:00,
2013-01-03 14:52:00,45.1,30.4,30.06,SSE,158,9.8,11.0,56,0.00,,BKN080,0.00,VWS V14.01,2013-01-03 21:52:00,
2013-01-03 14:54:00,44.8,30.5,30.06,SE,135,12.1,13.0,57,0.00,,BKN080,0.00,VWS V14.01,2013-01-03 21:54:00,
2013-01-03 14:58:00,45.0,30.7,30.06,SE,135,11.2,12.5,57,0.00,,BKN080,0.00,VWS V14.01,2013-01-03 21:58:00,
2013-01-03 15:00:00,44.4,30.2,30.06,SSE,158,7.6,14.8,57,0.00,,BKN080,0.00,VWS V14.01,2013-01-03 22:00:00,
2013-01-03 15:04:00,44.2,30.0,30.06,SSE,158,10.1,11.0,57,0.00,,SCT080,0.00,VWS V14.01,2013-01-03 22:04:00,
2013-01-03 15:08:00,44.2,30.4,30.06,SE,135,12.8,15.2,58,0.00,,SCT080,0.00,VWS V14.01,2013-01-03 22:08:00,
2013-01-03 15:12:00,44.2,30.4,30.06,SSE,158,17.7,17.7,58,0.00,,SCT080,0.00,VWS V14.01,2013-01-03 22:12:00,
2013-01-03 15:15:00,43.3,30.0,30.06,SSE,158,5.6,17.7,59,0.00,,SCT080,0.00,VWS V14.01,2013-01-03 22:15:00,
2013-01-03 15:18:00,43.5,30.6,30.06,South,180,6.3,14.5,60,0.00,,SCT080,0.00,VWS V14.01,2013-01-03 22:18:00,
2013-01-03 15:21:00,43.5,30.6,30.06,SE,135,10.5,12.1,60,0.00,,SCT080,0.00,VWS V14.01,2013-01-03 22:21:00,
2013-01-03 15:22:00,43.3,30.4,30.06,SSE,158,13.0,14.3,60,0.00,,SCT080,0.00,VWS V14.01,2013-01-03 22:22:00,
2013-01-03 15:26:00,42.8,29.9,30.09,South,180,8.5,12.3,60,0.00,,SCT080,0.00,VWS V14.01,2013-01-03 22:26:00,
2013-01-03 15:30:00,42.3,29.8,30.09,ESE,112,9.6,12.8,61,0.00,,SCT080,0.00,VWS V14.01,2013-01-03 22:30:00,
2013-01-03 15:32:00,42.4,30.4,30.09,SE,135,10.7,13.4,62,0.00,,SCT080,0.00,VWS V14.01,2013-01-03 22:32:00,
2013-01-03 15:34:00,42.4,30.4,30.09,ESE,112,8.5,13.4,62,0.00,,SCT080,0.00,VWS V14.01,2013-01-03 22:34:00,
2013-01-03 15:38:00,42.1,30.4,30.09,SE,135,13.2,14.8,63,0.00,,SCT080,0.00,VWS V14.01,2013-01-03 22:38:00,
2013-01-03 15:40:00,42.1,30.4,30.09,SSE,158,12.1,13.2,63,0.00,,SCT080,0.00,VWS V14.01,2013-01-03 22:40:00,
2013-01-03 15:47:00,41.5,30.3,30.09,ESE,112,8.5,15.4,64,0.00,,SCT080,0.00,VWS V14.01,2013-01-03 22:47:00,
2013-01-03 15:52:00,41.2,30.3,30.09,SSE,158,5.8,15.7,65,0.00,,SCT080,0.00,VWS V14.01,2013-01-03 22:52:00,
2013-01-03 15:54:00,41.2,30.3,30.09,ESE,112,8.1,15.4,65,0.00,,SCT080,0.00,VWS V14.01,2013-01-03 22:54:00,
2013-01-03 15:56:00,41.5,30.7,30.09,SE,135,10.5,13.4,65,0.00,,SCT080,0.00,VWS V14.01,2013-01-03 22:56:00,
2013-01-03 16:02:00,40.8,30.7,30.09,SSE,158,10.3,12.1,67,0.00,,SCT080,0.00,VWS V14.01,2013-01-03 23:02:00,
2013-01-03 16:05:00,41.0,30.9,30.09,SE,135,5.8,11.0,67,0.00,,SCT080,0.00,VWS V14.01,2013-01-03 23:05:00,
2013-01-03 16:08:00,40.8,31.1,30.09,SE,135,8.1,8.7,68,0.00,,SCT080,0.00,VWS V14.01,2013-01-03 23:08:00,
2013-01-03 16:15:00,40.5,30.8,30.09,SSE,158,5.6,7.8,68,0.00,,SCT080,0.00,VWS V14.01,2013-01-03 23:15:00,
2013-01-03 16:16:00,39.7,30.4,30.09,SE,135,9.2,10.1,69,0.00,,SCT080,0.00,VWS V14.01,2013-01-03 23:16:00,
2013-01-03 16:23:00,38.7,30.1,30.09,SE,135,7.6,9.4,71,0.00,,SCT080,0.00,VWS V14.01,2013-01-03 23:23:00,
2013-01-03 16:25:00,38.5,30.2,30.09,SE,135,6.0,10.3,72,0.00,,SCT080,0.00,VWS V14.01,2013-01-03 23:25:00,
2013-01-03 16:26:00,38.1,29.9,30.06,SSE,158,8.5,10.3,72,0.00,,SCT080,0.00,VWS V14.01,2013-01-03 23:26:00,
2013-01-03 16:33:00,37.6,30.4,30.06,SSE,158,9.8,13.4,75,0.00,,SCT080,0.00,VWS V14.01,2013-01-03 23:33:00,
2013-01-03 16:34:00,37.6,30.4,30.06,SE,135,4.9,13.0,75,0.00,,SCT080,0.00,VWS V14.01,2013-01-03 23:34:00,
2013-01-03 16:43:00,37.0,30.5,30.06,SSE,158,8.5,10.3,77,0.00,,SCT080,0.00,VWS V14.01,2013-01-03 23:43:00,
2013-01-03 16:48:00,36.9,30.6,30.06,SE,135,6.0,10.1,78,0.00,,SCT080,0.00,VWS V14.01,2013-01-03 23:48:00,
2013-01-03 16:51:00,36.7,30.5,30.06,SE,135,9.8,11.4,78,0.00,,SCT080,0.00,VWS V14.01,2013-01-03 23:51:00,
2013-01-03 16:54:00,36.5,30.6,30.06,SSE,158,10.3,10.7,79,0.00,,SCT080,0.00,VWS V14.01,2013-01-03 23:54:00,
2013-01-03 16:56:00,36.5,30.6,30.06,ESE,112,5.6,10.3,79,0.00,,SCT080,0.00,VWS V14.01,2013-01-03 23:56:00,
2013-01-03 17:02:00,36.3,30.8,30.06,West,270,7.2,8.5,80,0.00,,SCT080,0.00,VWS V14.01,2013-01-04 00:02:00,
2013-01-03 17:06:00,36.1,30.9,30.06,SE,135,7.2,9.8,81,0.00,,SCT080,0.00,VWS V14.01,2013-01-04 00:06:00,
2013-01-03 17:08:00,36.0,31.0,30.06,SE,135,6.3,8.7,82,0.00,,SCT080,0.00,VWS V14.01,2013-01-04 00:08:00,
2013-01-03 17:13:00,36.0,31.0,30.09,ESE,112,8.5,9.6,82,0.00,,SCT080,0.00,VWS V14.01,2013-01-04 00:13:00,
2013-01-03 17:16:00,35.8,31.1,30.09,SSE,158,6.0,8.5,83,0.00,,SCT080,0.00,VWS V14.01,2013-01-04 00:16:00,
2013-01-03 17:18:00,35.8,31.1,30.09,SSE,158,7.6,8.7,83,0.00,,SCT080,0.00,VWS V14.01,2013-01-04 00:18:00,
2013-01-03 17:24:00,35.6,31.2,30.09,SSE,158,5.6,12.8,84,0.00,,SCT080,0.00,VWS V14.01,2013-01-04 00:24:00,
2013-01-03 17:30:00,35.6,31.5,30.09,SSE,158,11.9,12.3,85,0.00,,SCT080,0.00,VWS V14.01,2013-01-04 00:30:00,
2013-01-03 17:32:00,35.6,31.5,30.09,SSE,158,7.8,11.9,85,0.00,,SCT080,0.00,VWS V14.01,2013-01-04 00:32:00,
2013-01-03 17:35:00,35.4,31.4,30.09,SSE,158,10.5,10.5,85,0.00,,SCT080,0.00,VWS V14.01,2013-01-04 00:35:00,
2013-01-03 17:36:00,35.4,31.4,30.09,SSE,158,12.5,12.5,85,0.00,,SCT080,0.00,VWS V14.01,2013-01-04 00:36:00,
2013-01-03 17:39:00,35.4,31.4,30.09,SSE,158,9.0,12.5,85,0.00,,SCT080,0.00,VWS V14.01,2013-01-04 00:39:00,
2013-01-03 17:40:00,35.4,31.4,30.09,South,180,8.5,9.0,85,0.00,,SCT080,0.00,VWS V14.01,2013-01-04 00:40:00,
2013-01-03 17:43:00,35.4,31.4,30.09,SE,135,15.2,15.2,85,0.00,,SCT080,0.00,VWS V14.01,2013-01-04 00:43:00,
2013-01-03 17:44:00,35.2,31.2,30.09,SSE,158,8.5,15.2,85,0.00,,SCT080,0.00,VWS V14.01,2013-01-04 00:44:00,
2013-01-03 17:46:00,35.1,31.0,30.09,South,180,10.5,10.5,85,0.00,,SCT080,0.00,VWS V14.01,2013-01-04 00:46:00,
2013-01-03 17:50:00,35.1,31.0,30.09,SE,135,9.8,10.5,85,0.00,,SCT080,0.00,VWS V14.01,2013-01-04 00:50:00,
2013-01-03 17:52:00,35.1,31.3,30.09,SSE,158,10.1,10.1,86,0.00,,SCT080,0.00,VWS V14.01,2013-01-04 00:52:00,
2013-01-03 17:54:00,35.1,31.3,30.09,South,180,7.4,12.3,86,0.00,,SCT080,0.00,VWS V14.01,2013-01-04 00:54:00,
2013-01-03 18:00:00,35.2,31.8,30.12,SSE,158,8.5,12.5,87,0.00,,BKN060,0.00,VWS V14.01,2013-01-04 01:00:00,
2013-01-03 18:04:00,35.4,31.9,30.12,SE,135,6.3,12.3,87,0.00,,BKN060,0.00,VWS V14.01,2013-01-04 01:04:00,
2013-01-03 18:08:00,35.4,31.9,30.12,SE,135,8.5,13.0,87,0.00,,BKN060,0.00,VWS V14.01,2013-01-04 01:08:00,
2013-01-03 18:12:00,35.4,31.7,30.12,SSE,158,9.4,11.9,86,0.00,,BKN060,0.00,VWS V14.01,2013-01-04 01:12:00,
2013-01-03 18:16:00,35.4,31.7,30.12,SE,135,6.0,10.7,86,0.00,,BKN060,0.00,VWS V14.01,2013-01-04 01:16:00,
2013-01-03 18:19:00,35.4,31.7,30.12,South,180,8.5,9.8,86,0.00,,BKN060,0.00,VWS V14.01,2013-01-04 01:19:00,
2013-01-03 18:20:00,35.4,31.7,30.12,SSE,158,7.6,12.5,86,0.00,,BKN060,0.00,VWS V14.01,2013-01-04 01:20:00,
2013-01-03 18:24:00,35.2,31.5,30.12,SSE,158,9.0,15.4,86,0.00,,BKN060,0.00,VWS V14.01,2013-01-04 01:24:00,
2013-01-03 18:30:00,35.1,31.6,30.12,SSE,158,6.7,13.2,87,0.00,,BKN060,0.00,VWS V14.01,2013-01-04 01:30:00,
2013-01-03 18:36:00,35.1,31.6,30.12,SSE,158,9.0,12.3,87,0.00,,BKN060,0.00,VWS V14.01,2013-01-04 01:36:00,
2013-01-03 18:38:00,35.1,31.6,30.12,SE,135,10.1,12.1,87,0.00,,BKN060,0.00,VWS V14.01,2013-01-04 01:38:00,
2013-01-03 18:42:00,35.1,31.6,30.12,SE,135,10.3,10.3,87,0.00,,BKN060,0.00,VWS V14.01,2013-01-04 01:42:00,
2013-01-03 18:44:00,35.1,31.6,30.12,SE,135,7.8,10.3,87,0.00,,BKN060,0.00,VWS V14.01,2013-01-04 01:44:00,
2013-01-03 18:50:00,34.9,31.7,30.12,SSE,158,14.5,19.2,88,0.00,,BKN060,0.00,VWS V14.01,2013-01-04 01:50:00,
2013-01-03 18:55:00,34.7,31.5,30.12,SE,135,10.1,12.3,88,0.00,,BKN060,0.00,VWS V14.01,2013-01-04 01:55:00,
2013-01-03 18:56:00,34.5,31.3,30.12,SSE,158,10.5,15.2,88,0.00,,BKN060,0.00,VWS V14.01,2013-01-04 01:56:00,
2013-01-03 18:58:00,34.5,31.6,30.12,SSE,158,3.8,10.7,89,0.00,,BKN060,0.00,VWS V14.01,2013-01-04 01:58:00,
2013-01-03 19:02:00,34.5,31.6,30.12,SSE,158,11.0,14.3,89,0.00,,BKN055,0.00,VWS V14.01,2013-01-04 02:02:00,
2013-01-03 19:04:00,34.5,31.6,30.12,SSE,158,10.7,11.0,89,0.00,,BKN055,0.00,VWS V14.01,2013-01-04 02:04:00,
2013-01-03 19:07:00,34.5,31.6,30.12,SSE,158,11.4,11.4,89,0.00,,BKN055,0.00,VWS V14.01,2013-01-04 02:07:00,
2013-01-03 19:12:00,34.3,31.7,30.12,ESE,112,8.7,11.0,90,0.00,,BKN055,0.00,VWS V14.01,2013-01-04 02:12:00,
2013-01-03 19:14:00,34.3,31.7,30.12,East,90,10.3,10.3,90,0.00,,BKN055,0.00,VWS V14.01,2013-01-04 02:14:00,
2013-01-03 19:20:00,34.3,31.4,30.12,South,180,15.4,15.4,89,0.00,,BKN055,0.00,VWS V14.01,2013-01-04 02:20:00,
2013-01-03 19:22:00,34.2,31.3,30.12,SSE,158,3.8,15.4,89,0.00,,BKN055,0.00,VWS V14.01,2013-01-04 02:22:00,
2013-01-03 19:28:00,34.0,30.8,30.15,SSE,158,6.5,13.0,88,0.00,,BKN055,0.00,VWS V14.01,2013-01-04 02:28:00,
2013-01-03 19:31:00,34.0,30.5,30.15,SSE,158,12.3,15.2,87,0.00,,BKN055,0.00,VWS V14.01,2013-01-04 02:31:00,
2013-01-03 19:32:00,33.8,30.4,30.15,SE,135,7.8,12.3,87,0.00,,BKN055,0.00,VWS V14.01,2013-01-04 02:32:00,
2013-01-03 19:38:00,33.8,30.4,30.15,SSE,158,13.2,13.2,87,0.00,,BKN055,0.00,VWS V14.01,2013-01-04 02:38:00,
2013-01-03 19:40:00,34.0,30.5,30.15,SSE,158,12.5,15.2,87,0.00,,BKN055,0.00,VWS V14.01,2013-01-04 02:40:00,
2013-01-03 19:46:00,34.0,30.5,30.15,SSE,158,15.4,15.4,87,0.00,,BKN055,0.00,VWS V14.01,2013-01-04 02:46:00,
2013-01-03 19:50:00,34.0,30.5,30.15,SSE,158,12.5,17.9,87,0.00,,BKN055,0.00,VWS V14.01,2013-01-04 02:50:00,
2013-01-03 19:54:00,33.8,30.1,30.15,South,180,12.3,15.2,86,0.00,,BKN055,0.00,VWS V14.01,2013-01-04 02:54:00,
2013-01-03 19:56:00,33.8,30.1,30.15,SSE,158,10.5,15.9,86,0.00,,BKN055,0.00,VWS V14.01,2013-01-04 02:56:00,
2013-01-03 19:58:00,33.8,30.1,30.15,ESE,112,12.5,12.5,86,0.00,,BKN055,0.00,VWS V14.01,2013-01-04 02:58:00,
2013-01-03 20:02:00,33.6,30.2,30.15,SE,135,10.5,17.5,87,0.00,,BKN100,0.00,VWS V14.01,2013-01-04 03:02:00,
2013-01-03 20:04:00,33.4,30.0,30.15,SSW,202,16.8,16.8,87,0.00,,BKN100,0.00,VWS V14.01,2013-01-04 03:04:00,
2013-01-03 20:10:00,33.3,30.1,30.15,South,180,13.2,16.3,88,0.00,,BKN100,0.00,VWS V14.01,2013-01-04 03:10:00,
2013-01-03 20:13:00,33.3,30.1,30.15,SSW,202,12.8,13.2,88,0.00,,BKN100,0.00,VWS V14.01,2013-01-04 03:13:00,
2013-01-03 20:16:00,33.3,30.1,30.15,SSE,158,8.1,15.7,88,0.00,,BKN100,0.00,VWS V14.01,2013-01-04 03:16:00,
2013-01-03 20:20:00,33.3,30.1,30.15,SE,135,12.5,16.8,88,0.00,,BKN100,0.00,VWS V14.01,2013-01-04 03:20:00,
2013-01-03 20:24:00,33.3,30.1,30.15,South,180,5.4,12.8,88,0.00,,BKN100,0.00,VWS V14.01,2013-01-04 03:24:00,
2013-01-03 20:30:00,33.4,30.0,30.15,South,180,14.8,14.8,87,0.00,,BKN100,0.00,VWS V14.01,2013-01-04 03:30:00,
2013-01-03 20:38:00,33.4,29.7,30.15,SE,135,11.0,19.5,86,0.00,,BKN100,0.00,VWS V14.01,2013-01-04 03:38:00,
2013-01-03 20:43:00,33.4,29.7,30.15,SSE,158,15.9,15.9,86,0.00,,BKN100,0.00,VWS V14.01,2013-01-04 03:43:00,
2013-01-03 20:44:00,33.3,29.8,30.15,SE,135,10.7,15.9,87,0.00,,BKN100,0.00,VWS V14.01,2013-01-04 03:44:00,
2013-01-03 20:50:00,33.3,29.8,30.15,SSE,158,13.0,13.9,87,0.00,,BKN100,0.00,VWS V14.01,2013-01-04 03:50:00,
2013-01-03 20:56:00,33.3,29.8,30.15,SSE,158,12.5,17.5,87,0.00,,BKN100,0.00,VWS V14.01,2013-01-04 03:56:00,
2013-01-03 21:01:00,33.3,29.8,30.15,South,180,7.2,13.9,87,0.00,,BKN100,0.00,VWS V14.01,2013-01-04 04:01:00,
2013-01-03 21:02:00,33.3,29.8,30.15,SSE,158,13.0,15.4,87,0.00,,BKN100,0.00,VWS V14.01,2013-01-04 04:02:00,
2013-01-03 21:04:00,33.3,29.5,30.15,SE,135,9.4,15.4,86,0.00,,BKN100,0.00,VWS V14.01,2013-01-04 04:04:00,
2013-01-03 21:08:00,33.3,29.5,30.15,South,180,8.7,17.9,86,0.00,,BKN100,0.00,VWS V14.01,2013-01-04 04:08:00,
2013-01-03 21:11:00,33.3,29.5,30.15,SSE,158,13.2,13.2,86,0.00,,BKN100,0.00,VWS V14.01,2013-01-04 04:11:00,
2013-01-03 21:14:00,33.3,29.2,30.15,South,180,10.7,14.8,85,0.00,,BKN100,0.00,VWS V14.01,2013-01-04 04:14:00,
2013-01-03 21:18:00,33.3,29.0,30.15,SSE,158,12.3,12.5,84,0.00,,BKN100,0.00,VWS V14.01,2013-01-04 04:18:00,
2013-01-03 21:20:00,33.1,28.5,30.15,SSE,158,10.1,12.5,83,0.00,,BKN100,0.00,VWS V14.01,2013-01-04 04:20:00,
2013-01-03 21:26:00,33.1,28.5,30.15,SSE,158,12.8,12.8,83,0.00,,BKN100,0.00,VWS V14.01,2013-01-04 04:26:00,
2013-01-03 21:28:00,33.1,28.2,30.15,SSE,158,14.8,14.8,82,0.00,,BKN100,0.00,VWS V14.01,2013-01-04 04:28:00,
2013-01-03 21:32:00,33.1,28.2,30.15,SSE,158,8.7,14.8,82,0.00,,BKN100,0.00,VWS V14.01,2013-01-04 04:32:00,
2013-01-03 21:38:00,33.1,28.2,30.15,SSW,202,9.6,9.8,82,0.00,,BKN100,0.00,VWS V14.01,2013-01-04 04:38:00,
2013-01-03 21:40:00,33.1,28.2,30.15,SSW,202,9.6,9.6,82,0.00,,BKN100,0.00,VWS V14.01,2013-01-04 04:40:00,
2013-01-03 21:44:00,33.1,28.2,30.15,SSE,158,8.7,9.6,82,0.00,,BKN100,0.00,VWS V14.01,2013-01-04 04:44:00,
2013-01-03 21:48:00,33.1,28.2,30.15,SE,135,6.3,10.1,82,0.00,,BKN100,0.00,VWS V14.01,2013-01-04 04:48:00,
2013-01-03 21:50:00,33.1,28.2,30.15,SSE,158,6.3,6.3,82,0.00,,BKN100,0.00,VWS V14.01,2013-01-04 04:50:00,
2013-01-03 21:55:00,33.1,28.2,30.15,SSE,158,6.3,6.3,82,0.00,,BKN100,0.00,VWS V14.01,2013-01-04 04:55:00,
2013-01-03 21:56:00,33.1,28.2,30.15,SSE,158,6.3,6.3,82,0.00,,BKN100,0.00,VWS V14.01,2013-01-04 04:56:00,
2013-01-03 22:05:00,33.1,28.5,30.15,SSE,158,10.3,12.3,83,0.00,,OVC045,0.00,VWS V14.01,2013-01-04 05:05:00,
2013-01-03 22:07:00,33.1,28.5,30.15,SSE,158,9.4,10.3,83,0.00,,OVC045,0.00,VWS V14.01,2013-01-04 05:07:00,
2013-01-03 22:10:00,33.1,28.2,30.15,South,180,10.1,11.9,82,0.00,,OVC045,0.00,VWS V14.01,2013-01-04 05:10:00,
2013-01-03 22:12:00,33.1,28.2,30.15,SSE,158,12.5,13.0,82,0.00,,OVC045,0.00,VWS V14.01,2013-01-04 05:12:00,
2013-01-03 22:18:00,33.3,28.1,30.15,SSE,158,10.1,14.8,81,0.00,,OVC045,0.00,VWS V14.01,2013-01-04 05:18:00,
2013-01-03 22:24:00,33.3,27.8,30.15,SSE,158,12.5,18.1,80,0.00,,OVC045,0.00,VWS V14.01,2013-01-04 05:24:00,
2013-01-03 22:26:00,33.3,27.8,30.15,South,180,13.2,13.2,80,0.00,,OVC045,0.00,VWS V14.01,2013-01-04 05:26:00,
2013-01-03 22:32:00,33.1,27.3,30.15,SSE,158,14.3,14.8,79,0.00,,OVC045,0.00,VWS V14.01,2013-01-04 05:32:00,
2013-01-03 22:37:00,33.1,27.0,30.15,SSE,158,5.6,14.3,78,0.00,,OVC045,0.00,VWS V14.01,2013-01-04 05:37:00,
2013-01-03 22:38:00,33.1,27.0,30.15,South,180,7.8,8.7,78,0.00,,OVC045,0.00,VWS V14.01,2013-01-04 05:38:00,
2013-01-03 22:42:00,33.1,27.0,30.15,SSW,202,3.8,13.6,78,0.00,,OVC045,0.00,VWS V14.01,2013-01-04 05:42:00,
2013-01-03 22:48:00,33.1,27.0,30.15,South,180,5.6,15.4,78,0.00,,OVC045,0.00,VWS V14.01,2013-01-04 05:48:00,
2013-01-03 22:54:00,32.9,26.5,30.15,SSE,158,8.7,15.4,77,0.00,,OVC045,0.00,VWS V14.01,2013-01-04 05:54:00,
2013-01-03 23:00:00,32.9,26.5,30.15,SSE,158,7.6,11.9,77,0.00,,,0.00,VWS V14.01,2013-01-04 06:00:00,
2013-01-03 23:02:00,32.9,26.5,30.15,SSE,158,9.2,11.0,77,0.00,,,0.00,VWS V14.01,2013-01-04 06:02:00,
2013-01-03 23:08:00,33.1,26.4,30.15,SSW,202,12.1,15.4,76,0.00,,,0.00,VWS V14.01,2013-01-04 06:08:00,
2013-01-03 23:14:00,33.1,26.4,30.15,SSE,158,10.5,10.7,76,0.00,,,0.00,VWS V14.01,2013-01-04 06:14:00,
2013-01-03 23:16:00,33.1,26.4,30.15,South,180,2.2,11.4,76,0.00,,,0.00,VWS V14.01,2013-01-04 06:16:00,
2013-01-03 23:20:00,33.1,26.4,30.15,SSE,158,7.6,9.8,76,0.00,,,0.00,VWS V14.01,2013-01-04 06:20:00,
2013-01-03 23:22:00,33.1,26.4,30.15,South,180,8.7,14.5,76,0.00,,,0.00,VWS V14.01,2013-01-04 06:22:00,
2013-01-03 23:26:00,33.1,26.4,30.15,SSE,158,10.5,15.4,76,0.00,,,0.00,VWS V14.01,2013-01-04 06:26:00,
2013-01-03 23:28:00,33.3,26.5,30.15,SSE,158,12.8,13.0,76,0.00,,,0.00,VWS V14.01,2013-01-04 06:28:00,
2013-01-03 23:34:00,33.3,26.5,30.15,SSE,158,13.2,13.2,76,0.00,,,0.00,VWS V14.01,2013-01-04 06:34:00,
2013-01-03 23:40:00,33.4,26.7,30.15,SSE,158,13.0,13.0,76,0.00,,,0.00,VWS V14.01,2013-01-04 06:40:00,
2013-01-03 23:47:00,33.6,26.9,30.15,SSE,158,8.1,15.2,76,0.00,,,0.00,VWS V14.01,2013-01-04 06:47:00,
2013-01-03 23:48:00,33.6,26.6,30.15,SSE,158,12.8,14.3,75,0.00,,,0.00,VWS V14.01,2013-01-04 06:48:00,
2013-01-03 23:52:00,33.6,26.6,30.15,SSE,158,6.0,9.8,75,0.00,,,0.00,VWS V14.01,2013-01-04 06:52:00,
2013-01-03 23:55:00,33.6,26.6,30.15,SSW,202,8.7,12.3,75,0.00,,,0.00,VWS V14.01,2013-01-04 06:55:00,
2013-01-03 23:56:00,33.6,26.6,30.15,South,180,12.3,12.3,75,0.00,,,0.00,VWS V14.01,2013-01-04 06:56:00,
2013-01-03 23:58:00,33.6,26.6,30.15,SSE,158,8.7,12.3,75,0.00,,,0.00,VWS V14.01,2013-01-04 06:58:00,